User: anonymous   Login
Location: Unspecified
(0.0000°N, 0.0000°E)
Time: 09:06:18
(UTC+00:00)
Language:

RS-15 - Orbit

View from above orbital plane
View from above orbital plane
View from above satellite
View from above satellite

Ground track
Ground track

The orbit data is extracted from the following two-line orbital elements,

1 23439U 94085A   18015.96890000 -.00000016 +00000-0 +76444-3 0  9990
2 23439 064.8136 235.0177 0162106 209.0335 257.5542 11.27566436949401
Epoch (UTC): 15 January 2018 23:15:12
Eccentricity: 0.0162106
inclination: 64.8136°
perigee height: 1886 km
apogee height: 2158 km
right ascension of ascending node: 235.0177°
argument of perigee: 209.0335°
revolutions per day: 11.27566436
mean anomaly at epoch: 257.5542°
orbit number at epoch: 94940

The dashed part of the orbit path shows where the satellite is in the earth's shadow,  

DLR